Location: Unspecified
(0.0000°N, 0.0000°E)
Time: 23:32:09
(UTC+00:00)

SR - All Passes

Search period start: 19 November 2019 00:00
Search period end: 29 November 2019 00:00
Orbit: 574 x 882 km, 66.7° (Epoch: 18 November)

Date Brightness Start Highest point End Pass type
(mag) Time Alt. Az. Time Alt. Az. Time Alt. Az.
19 Nov - 01:11:07 10° NNW 01:16:41 84° ENE 01:21:46 10° SSE night (unlit)
19 Nov - 11:59:27 10° ESE 11:59:54 10° ESE 12:00:20 10° ESE daylight
19 Nov - 13:37:15 10° SW 13:41:32 37° WNW 13:46:10 10° N daylight
20 Nov - 00:22:07 10° N 00:27:02 32° ENE 00:31:37 10° SE night (unlit)
20 Nov - 02:05:34 10° WNW 02:08:46 16° WSW 02:11:51 10° SW night (unlit)
20 Nov - 12:47:21 10° SSW 12:51:56 76° ESE 12:56:56 10° NNE daylight
20 Nov - 23:34:54 10° NE 23:37:18 13° ENE 23:39:38 10° E night (unlit)
21 Nov - 01:14:10 10° NW 01:19:17 41° WSW 01:24:02 10° S night (unlit)
21 Nov - 11:58:35 10° SSE 12:02:26 27° ESE 12:06:34 10° NE daylight
21 Nov - 13:41:27 10° WSW 13:44:17 16° WNW 13:47:15 10° NNW daylight
22 Nov - 00:24:14 10° NNW 00:29:45 77° ENE 00:34:48 10° SSE night (unlit)
22 Nov - 12:50:12 10° SW 12:54:35 41° WNW 12:59:21 10° N daylight
22 Nov - 23:35:20 10° N 23:40:06 30° ENE 23:44:33 10° SE night (unlit)
23 Nov - 01:18:24 10° WNW 01:21:51 17° WSW 01:25:08 10° SSW night (unlit)
23 Nov - 12:00:24 10° SSW 12:05:00 69° ESE 12:10:01 10° NNE daylight
23 Nov - 22:48:32 10° NE 22:50:22 12° ENE 22:52:09 10° E night (unlit)
24 Nov - 00:27:11 10° NW 00:32:22 44° WSW 00:37:08 10° S night (unlit)
24 Nov - 11:11:44 10° SSE 11:15:30 24° ESE 11:19:31 10° NE daylight
24 Nov - 12:54:13 10° WSW 12:57:20 17° WNW 13:00:37 10° NNW daylight
24 Nov - 23:37:21 10° NNW 23:42:49 70° ENE 23:47:50 10° SSE night (unlit)
25 Nov - 12:03:10 10° SW 12:07:37 46° WNW 12:12:30 10° N daylight
25 Nov - 22:48:34 10° NNE 22:53:09 27° ENE 22:57:27 10° SE night (unlit)
26 Nov - 00:31:16 10° WNW 00:34:55 19° WSW 00:38:24 10° SSW night (unlit)
26 Nov - 11:13:28 10° S 11:18:03 63° ESE 11:23:04 10° NNE daylight
26 Nov - 22:02:30 10° ENE 22:03:24 10° ENE 22:04:18 10° ENE night (unlit)
26 Nov - 23:40:13 10° NW 23:45:26 48° WSW 23:50:14 10° S night (unlit)
27 Nov - 10:24:56 10° SSE 10:28:34 23° ESE 10:32:27 10° ENE daylight
27 Nov - 12:07:00 10° WSW 12:10:22 19° WNW 12:13:56 10° NNW daylight
27 Nov - 22:50:28 10° NNW 22:55:53 64° ENE 23:00:51 10° SSE night (unlit)
28 Nov - 11:16:08 10° SW 11:20:41 50° WNW 11:25:39 10° N daylight
28 Nov - 22:01:49 10° NNE 22:06:12 25° ENE 22:10:20 10° ESE night (unlit)
28 Nov - 23:44:09 10° WNW 23:47:59 20° WSW 23:51:38 10° SSW night (unlit)
